Greenville, ME

12:13 PM EST on December 12, 2019 (GMT -0500)
Greenville

Weather History for KGNR - August, 2019

Change the Weather History Date:

Monday, August 12, 2019

  Actual Average (KMLT) Record (KMLT)
Temperature  
Mean Temperature 68 °F -  
Max Temperature 73 °F 78 °F 94 °F (1944)
Min Temperature 63 °F 56 °F 38 °F (1919)
Cooling Degree Days 3    
Growing Degree Days 18 (Base 50)    
Moisture  
Dew Point 59 °F    
Average Humidity 73    
Maximum Humidity 84    
Minimum Humidity 64    
Precipitation  
Precipitation 0.02 in - - ()
Sea Level Pressure  
Sea Level Pressure 29.81 in    
Wind  
Wind Speed 4 mph (NW)    
Max Wind Speed 10 mph    
Max Gust Speed 17 mph    
Averages and records for this station are not official NWS values.
T = Trace of Precipitation, MM = Missing Value Source: NWS Daily Summary

Daily Weather History Graph

Daily Weather History Graph

Search for Another Location

Airport or City:

Astronomy

Aug. 12, 2019 Rise Set
Actual Time 5:35 AM EDT 7:50 PM EDT
Civil Twilight 5:02 AM EDT 8:23 PM EDT
Nautical Twilight 4:21 AM EDT 9:03 PM EDT
Astronomical Twilight 3:36 AM EDT 9:48 PM EDT
Moon 6:25 PM EDT 2:34 AM EDT
Length of Visible Light 15h 21m
Length of Day
14h 15m
Waxing Gibbous, 93% of the Moon is Illuminated
Aug 12
Waxing Gibbous
Aug 15
Full
Aug 23
Last Quarter
Aug 30
New
Sep 5
First Quarter

Hourly Weather History & Observations

Time (EDT) Temp. Dew Point Humidity Pressure Visibility Wind Dir Wind Speed Gust Speed Precip Events Conditions
12:56 AM 66.0 °F 54.0 °F 65% 29.83 in - Variable 4.6 mph - N/A   Unknown
1:56 AM 66.0 °F 55.9 °F 70% 29.83 in - NW 9.2 mph - N/A   Unknown
2:56 AM 64.9 °F 55.9 °F 73% 29.83 in - WNW 10.4 mph 17.3 mph N/A   Unknown
3:56 AM 64.9 °F 57.0 °F 75% 29.83 in - Variable 6.9 mph - N/A   Unknown
4:56 AM 64.9 °F 55.9 °F 73% 29.83 in - Calm Calm - N/A   Unknown
5:56 AM 63.0 °F 57.0 °F 81% 29.86 in - Calm Calm - N/A   Unknown
6:56 AM 64.0 °F 57.9 °F 80% 29.86 in - Calm Calm - N/A   Unknown
7:56 AM 64.9 °F 59.0 °F 81% 29.86 in - Variable 3.5 mph - N/A   Unknown
8:56 AM 64.9 °F 57.0 °F 75% 29.86 in - WNW 6.9 mph - N/A   Unknown
9:56 AM 68.0 °F 57.9 °F 70% 29.85 in - Variable 4.6 mph - N/A   Unknown
10:56 AM 70.0 °F 59.0 °F 68% 29.85 in - NW 9.2 mph - N/A   Unknown
11:56 AM 72.0 °F 60.1 °F 66% 29.82 in - Calm Calm - 0.01 in   Unknown
12:56 PM 72.0 °F 59.0 °F 64% 29.81 in - Calm Calm - N/A   Unknown
1:56 PM 72.0 °F 59.0 °F 64% 29.81 in - NNW 5.8 mph - N/A   Unknown
2:56 PM 73.0 °F 60.1 °F 64% 29.79 in - Variable 4.6 mph - N/A   Unknown
3:56 PM 70.0 °F 60.1 °F 71% 29.79 in - NW 9.2 mph - N/A   Unknown
4:56 PM 70.0 °F 61.0 °F 73% 29.78 in - Variable 4.6 mph - 0.01 in   Unknown
5:56 PM 73.0 °F 63.0 °F 71% 29.77 in - Variable 4.6 mph - N/A   Unknown
6:56 PM 70.0 °F 61.0 °F 73% 29.77 in - Calm Calm - N/A   Unknown
7:56 PM 66.9 °F 60.1 °F 79% 29.77 in - Calm Calm - N/A   Unknown
8:56 PM 64.0 °F 59.0 °F 84% 29.78 in - Calm Calm - N/A   Unknown
9:56 PM 64.9 °F 59.0 °F 81% 29.76 in - Calm Calm - N/A   Unknown
10:56 PM 64.9 °F 59.0 °F 81% 29.75 in - Calm Calm - N/A   Unknown
11:56 PM 66.0 °F 59.0 °F 78% 29.74 in - Calm Calm - N/A   Unknown